{"data":{"norad_id":45920,"intl_designator":"2020-048A","name":"KOREASAT 116","alt_names":[],"object_type":"PAYLOAD","status":"ACTIVE","operator":null,"country":"SKOR","launch_date":"2020-07-20","launch_site_code":"AFETR","launch_vehicle":null,"mission":null,"orbit_class":"UNKNOWN","rcs_meters":null,"size_class":null,"mass_kg":null,"dimensions":null,"purposes":["comms"],"wikipedia_slug":null,"has_3d_model":false,"image_url":null,"decayed_at":null,"tle_current":{"epoch":"2026-05-25T00:52:28.611264Z","epoch_age_seconds":78779,"freshness":"FRESH","line1":"1 45920U 20048A   26145.03644226 -.00000365  00000+0  00000+0 0  9992","line2":"2 45920   0.0123 301.2710 0000920 117.6637 313.0042  1.00274217 21408","mean_motion":1.00274217,"eccentricity":9.2e-5,"inclination_deg":0.0123,"raan_deg":301.271,"arg_perigee_deg":117.6637,"mean_anomaly_deg":313.0042,"bstar":0,"rev_number":2140,"period_min":1436.0620736635,"perigee_km":35782.034104468,"apogee_km":35789.792289704,"semimajor_km":42164.050197086,"source":"CELESTRAK","updated_at":"2026-05-25T13:38:14.094835Z"}}}